EST,Max TemperatureF,Mean TemperatureF,Min TemperatureF,Max Dew PointF,MeanDew PointF,Min DewpointF,Max Humidity, Mean Humidity, Min Humidity, Max Sea Level PressureIn, Mean Sea Level PressureIn, Min Sea Level PressureIn, Max VisibilityMiles, Mean VisibilityMiles, Min VisibilityMiles, Max Wind SpeedMPH, Mean Wind SpeedMPH, Max Gust SpeedMPH,PrecipitationIn, CloudCover, Events, WindDirDegrees
2013-12-1,61,53,44,47,40,35,93,70,55,30.33,30.20,30.03,10,10,8,8,3,11,0.00,6,,30
2013-12-2,65,57,48,46,43,37,86,69,39,30.00,29.91,29.83,10,9,6,12,3,17,T,6,Rain,322
2013-12-3,66,58,49,56,50,45,93,78,58,29.98,29.94,29.89,10,8,4,13,3,16,0.17,8,Rain,175
2013-12-4,67,61,55,60,56,53,93,92,81,30.11,30.04,29.96,10,3,0,10,3,12,0.47,5,Fog-Rain,168
2013-12-5,72,65,57,65,61,56,97,91,78,30.15,30.10,30.08,10,5,0,12,5,16,0.06,7,Fog-Rain,186
2013-12-6,81,72,62,66,63,60,93,81,58,30.16,30.10,30.05,10,9,6,18,8,23,0.00,2,,198
2013-12-7,70,58,46,66,57,43,93,89,86,30.37,30.21,30.08,10,6,1,17,8,23,0.42,7,Rain,34
2013-12-8,46,43,40,42,40,39,96,91,86,30.38,30.32,30.28,10,4,2,16,8,22,0.21,8,Rain,51
2013-12-9,58,50,41,56,47,39,100,94,89,30.26,30.16,30.05,6,2,0,7,2,9,T,8,Fog-Rain,65
2013-12-10,71,57,43,65,52,23,100,78,33,30.33,30.06,29.96,10,7,0,30,10,41,0.28,5,Fog-Rain,257
2013-12-11,55,44,32,38,30,21,89,65,28,30.46,30.37,30.31,10,10,10,10,3,15,0.00,1,,56
2013-12-12,54,43,31,37,27,17,92,62,24,30.42,30.36,30.29,10,10,10,15,4,18,0.00,0,,2
2013-12-13,58,43,28,35,28,19,92,62,26,30.41,30.34,30.26,10,10,8,9,2,13,0.00,1,,101
2013-12-14,67,57,46,64,56,35,93,84,60,30.22,29.93,29.81,10,8,1,17,7,24,0.83,7,Rain,220
2013-12-15,60,51,42,57,45,35,90,75,55,30.15,29.94,29.80,10,10,9,23,9,31,0.03,5,Rain,283
2013-12-16,60,47,33,36,33,30,89,65,35,30.24,30.19,30.15,10,10,8,14,5,21,0.00,0,,258
2013-12-17,65,50,35,34,32,27,89,55,24,30.22,30.14,30.07,10,10,10,21,9,26,0.00,0,,233
2013-12-18,57,45,33,34,28,19,82,54,24,30.33,30.25,30.09,10,9,2,13,4,17,0.00,0,,296
2013-12-19,63,47,30,43,34,25,92,70,25,30.38,30.31,30.24,10,9,5,12,2,15,0.00,0,,198
2013-12-20,72,58,44,52,46,42,93,77,38,30.27,30.22,30.17,10,9,5,14,2,18,0.00,2,,236
2013-12-21,79,63,46,66,54,44,93,82,54,30.17,30.12,30.04,10,7,1,16,6,25,0.00,4,,173
2013-12-22,80,75,70,67,65,62,90,77,54,30.12,30.07,30.04,10,10,10,24,11,32,T,7,,195
2013-12-23,72,65,57,67,63,54,93,88,79,30.14,30.08,30.04,10,8,2,21,7,29,0.23,8,Rain,246
2013-12-24,58,49,39,53,36,20,86,59,30,30.40,30.24,30.10,10,10,10,16,9,23,0.01,3,,349
2013-12-25,47,38,29,23,20,16,59,47,34,30.53,30.43,30.38,10,10,10,14,8,18,0.00,3,,45
2013-12-26,49,43,37,41,33,22,92,69,45,30.36,30.32,30.26,10,10,6,10,3,12,0.01,6,Rain,32
2013-12-27,55,45,34,35,29,24,92,62,32,30.46,30.40,30.32,10,10,6,13,4,17,0.00,0,,41
2013-12-28,59,45,30,43,33,25,92,69,28,30.40,30.27,30.07,10,9,3,12,5,18,0.10,4,Rain,61
2013-12-29,69,58,47,65,51,43,93,85,60,30.05,29.89,29.80,10,7,2,24,9,33,0.87,6,Rain,261
2013-12-30,58,50,42,44,42,39,93,75,51,30.17,30.09,29.99,10,10,10,10,6,13,0.00,0,,265
2013-12-31,56,48,40,43,39,32,86,69,45,30.38,30.28,30.16,10,10,7,13,5,17,0.00,1,,279